SCP
2 4 1 3 3 2 2 1 3 1 1 1 1 1 1 0 0 1 0 1 1 0
3 2 2 4 5 3 4 1 1 1 1 0 0 0 0 0 1 0 1 0 1 0
1 2 4 5 3 3 1 1 1 1 1 1 0 0 1 0 0 0 0 0 0 0
2 2 2 2 2 2 2 1 1 1 0 0 0 0 1 1 0 0 1 1 0 0
2 2 3 3 3 2 2 1 1 0 0 0 0 0 0 0 0 0 0 0 0 0
4 4 4 3 2 1 1 1 0 0 0 0 0 0 0 0 0 0 0 0 0 1
0 0 0 0 0 0 0 0 0 0 0 0 0 0 0 0 1 1 1 1 1 1
0 0 0 0 0 0 0 0 0 0 0 0 0 0 0 0 1 1 1 1 1 2
0 0 0 0 0 0 0 0 0 0 0 0 0 0 0 0 0 0 0 1 1 1
0 0 0 0 0 0 0 0 0 0 0 0 0 0 0 0 0 0 0 0 0 0
0 0 0 0 0 0 0 0 0 0 0 0 0 0 0 0 0 0 0 0 0 0
0 0 0 0 0 0 0 0 0 0 0 0 0 0 0 0 0 0 0 0 0 0
0 0 0 0 0 0 0 0 0 0 0 0 0 0 0 0 0 0 0 0 0 0
0 0 0 0 0 0 0 0 0 0 0 0 0 0 0 0 0 0 0 0 0 0
Wind_Speed_500mb
57 57 47 54 38 40 37 38 49 36 31 28 28 31 30 30 30 30 30 37 39 36
46 54 48 39 40 31 29 27 33 34 27 28 32 31 30 31 33 39 42 36 38 36
46 40 35 39 33 28 26 20 23 23 24 23 26 29 34 30 31 40 43 35 38 42
18 22 25 26 29 22 20 19 18 19 21 23 28 30 35 39 41 40 44 47 47 48
17 16 14 14 14 14 13 15 16 22 26 30 35 38 41 42 44 47 51 53 56 57
12 12 10 7 6 11 15 21 24 29 34 39 44 46 50 55 57 61 65 66 67 65
5 4 1 5 11 14 19 24 27 34 40 44 49 53 58 63 68 71 74 78 80 79
6 8 10 14 17 22 27 31 35 41 44 51 58 63 69 73 80 86 93 92 88 83
18 17 22 27 30 33 37 40 43 48 53 60 66 70 75 81 87 89 86 86 84 84
21 25 25 32 36 40 44 49 52 55 57 64 72 75 80 87 96 102 95 90 90 93
33 36 38 42 45 50 54 57 59 61 62 67 70 71 75 80 87 92 90 87 88 91
37 40 43 46 49 53 54 58 58 58 61 65 67 65 71 76 78 72 75 75 72 72
43 45 48 49 52 53 52 55 55 55 56 60 69 76 80 79 80 88 93 95 84 71
44 47 48 50 48 48 53 53 55 55 58 64 68 73 64 49 51 55 59 58 55 53
Wind_Direction_500mb
226 222 213 222 217 214 204 187 201 195 194 211 221 228 242 245 258 256 261 272 276 269
214 210 205 211 200 202 200 188 206 201 211 213 221 232 243 252 238 255 266 266 276 272
211 198 192 189 184 189 185 189 206 196 208 220 233 234 243 242 260 259 265 259 262 263
158 158 163 158 161 179 187 189 200 211 224 231 236 239 243 248 244 249 258 257 256 257
137 146 150 151 167 181 202 220 227 237 244 247 249 250 252 253 255 257 261 261 259 261
94 106 119 143 190 216 231 243 245 251 253 257 258 259 257 256 259 260 259 258 259 260
83 90 145 251 261 263 261 261 261 261 260 261 261 261 262 262 263 264 262 259 258 256
326 324 309 289 287 279 278 275 271 269 268 265 264 266 267 265 265 265 263 261 260 260
309 298 296 295 289 283 279 276 274 270 269 268 265 267 265 263 265 264 264 266 266 264
290 291 285 281 279 279 278 277 277 277 275 272 268 268 266 264 264 266 269 269 269 267
300 298 297 292 290 288 285 283 281 279 277 276 275 275 274 274 271 271 272 271 269 267
297 291 289 288 287 285 287 286 285 285 284 283 283 280 276 274 273 272 271 271 266 261
295 294 292 291 291 290 290 290 289 286 281 277 274 269 271 272 274 274 270 269 278 279
292 292 294 295 294 292 287 285 283 284 283 286 285 286 284 278 274 274 275 272 273 275
Wind_Speed_850mb
57 57 47 54 38 40 37 38 49 36 31 28 28 31 30 30 30 30 30 37 39 36
46 54 48 39 40 31 29 27 33 34 27 28 32 31 30 31 33 39 42 36 38 36
46 40 35 39 33 28 26 20 23 23 24 23 26 29 34 30 31 40 43 35 38 42
18 22 25 26 29 22 20 19 18 19 21 23 28 30 35 39 41 40 44 47 47 48
17 16 14 14 14 14 13 15 16 22 26 30 35 38 41 42 44 47 51 53 56 57
12 12 10 7 6 11 15 21 24 29 34 39 44 46 50 55 57 61 65 66 67 65
5 4 1 5 11 14 19 24 27 34 40 44 49 53 58 63 68 71 74 78 80 79
6 8 10 14 17 22 27 31 35 41 44 51 58 63 69 73 80 86 93 92 88 83
18 17 22 27 30 33 37 40 43 48 53 60 66 70 75 81 87 89 86 86 84 84
21 25 25 32 36 40 44 49 52 55 57 64 72 75 80 87 96 102 95 90 90 93
33 36 38 42 45 50 54 57 59 61 62 67 70 71 75 80 87 92 90 87 88 91
37 40 43 46 49 53 54 58 58 58 61 65 67 65 71 76 78 72 75 75 72 72
43 45 48 49 52 53 52 55 55 55 56 60 69 76 80 79 80 88 93 95 84 71
44 47 48 50 48 48 53 53 55 55 58 64 68 73 64 49 51 55 59 58 55 53
Wind_Direction_850mb
226 222 213 222 217 214 204 187 201 195 194 211 221 228 242 245 258 256 261 272 276 269
214 210 205 211 200 202 200 188 206 201 211 213 221 232 243 252 238 255 266 266 276 272
211 198 192 189 184 189 185 189 206 196 208 220 233 234 243 242 260 259 265 259 262 263
158 158 163 158 161 179 187 189 200 211 224 231 236 239 243 248 244 249 258 257 256 257
137 146 150 151 167 181 202 220 227 237 244 247 249 250 252 253 255 257 261 261 259 261
94 106 119 143 190 216 231 243 245 251 253 257 258 259 257 256 259 260 259 258 259 260
83 90 145 251 261 263 261 261 261 261 260 261 261 261 262 262 263 264 262 259 258 256
326 324 309 289 287 279 278 275 271 269 268 265 264 266 267 265 265 265 263 261 260 260
309 298 296 295 289 283 279 276 274 270 269 268 265 267 265 263 265 264 264 266 266 264
290 291 285 281 279 279 278 277 277 277 275 272 268 268 266 264 264 266 269 269 269 267
300 298 297 292 290 288 285 283 281 279 277 276 275 275 274 274 271 271 272 271 269 267
297 291 289 288 287 285 287 286 285 285 284 283 283 280 276 274 273 272 271 271 266 261
295 294 292 291 291 290 290 290 289 286 281 277 274 269 271 272 274 274 270 269 278 279
292 292 294 295 294 292 287 285 283 284 283 286 285 286 284 278 274 274 275 272 273 275